Time,TemperatureF,DewpointF,PressureIn,WindDirection,WindDirectionDegrees,WindSpeedMPH,WindSpeedGustMPH,Humidity,HourlyPrecipIn,Conditions,Clouds,dailyrainin,SolarRadiationWatts/m^2,SoftwareType,DateUTC
2013-03-29 00:00:00,41.6,28.0,30.14,East,97,0.0,-999.0,59,-99.99,,,0.00,0,weatherlink.com 1.10,2013-03-29 06:00:00,
2013-03-29 01:16:00,40.6,28.0,30.14,East,97,0.0,-999.0,61,-99.99,,,0.00,0,weatherlink.com 1.10,2013-03-29 07:16:00,
2013-03-29 02:01:00,41.4,28.0,30.13,East,96,0.0,-999.0,59,-99.99,,,0.00,0,weatherlink.com 1.10,2013-03-29 08:01:00,
2013-03-29 02:16:00,41.0,27.0,30.13,East,97,0.0,-999.0,59,-99.99,,,0.00,0,weatherlink.com 1.10,2013-03-29 08:16:00,
2013-03-29 02:46:00,39.7,27.0,30.12,East,96,0.0,-999.0,61,-99.99,,,0.00,0,weatherlink.com 1.10,2013-03-29 08:46:00,
2013-03-29 03:01:00,38.7,27.0,30.12,East,97,0.0,-999.0,63,-99.99,,,0.00,0,weatherlink.com 1.10,2013-03-29 09:01:00,
2013-03-29 03:16:00,38.1,27.0,30.12,East,96,0.0,-999.0,64,-99.99,,,0.00,0,weatherlink.com 1.10,2013-03-29 09:16:00,
2013-03-29 03:31:00,37.3,26.0,30.11,East,96,0.0,-999.0,65,-99.99,,,0.00,0,weatherlink.com 1.10,2013-03-29 09:31:00,
2013-03-29 04:01:00,37.7,27.0,30.11,East,96,0.0,-999.0,66,-99.99,,,0.00,0,weatherlink.com 1.10,2013-03-29 10:01:00,
2013-03-29 04:16:00,37.3,27.0,30.10,East,96,0.0,-999.0,66,-99.99,,,0.00,0,weatherlink.com 1.10,2013-03-29 10:16:00,
2013-03-29 04:31:00,36.9,27.0,30.09,East,96,0.0,-999.0,67,-99.99,,,0.00,0,weatherlink.com 1.10,2013-03-29 10:31:00,
2013-03-29 04:46:00,36.3,26.0,30.09,East,96,0.0,-999.0,66,-99.99,,,0.00,0,weatherlink.com 1.10,2013-03-29 10:46:00,
2013-03-29 05:01:00,36.0,26.0,30.09,East,96,0.0,-999.0,67,-99.99,,,0.00,0,weatherlink.com 1.10,2013-03-29 11:01:00,
2013-03-29 05:16:00,35.6,26.0,30.09,East,96,0.0,-999.0,68,-99.99,,,0.00,0,weatherlink.com 1.10,2013-03-29 11:16:00,
2013-03-29 05:31:00,35.6,26.0,30.09,East,96,0.0,-999.0,68,-99.99,,,0.00,0,weatherlink.com 1.10,2013-03-29 11:31:00,
2013-03-29 05:45:00,35.2,26.0,30.09,East,96,0.0,-999.0,69,-99.99,,,0.00,0,weatherlink.com 1.10,2013-03-29 11:45:00,
2013-03-29 06:02:00,34.2,25.0,30.08,East,96,0.0,-999.0,70,-99.99,,,0.00,0,weatherlink.com 1.10,2013-03-29 12:02:00,
2013-03-29 06:16:00,33.8,25.0,30.08,East,96,0.0,-999.0,71,-99.99,,,0.00,0,weatherlink.com 1.10,2013-03-29 12:16:00,
2013-03-29 06:31:00,33.9,26.0,30.08,East,96,0.0,-999.0,72,-99.99,,,0.00,0,weatherlink.com 1.10,2013-03-29 12:31:00,
2013-03-29 06:47:00,33.7,26.0,30.08,East,97,0.0,-999.0,72,-99.99,,,0.00,7,weatherlink.com 1.10,2013-03-29 12:47:00,
2013-03-29 07:02:00,34.0,26.0,30.08,East,96,0.0,-999.0,72,-99.99,,,0.00,21,weatherlink.com 1.10,2013-03-29 13:02:00,
2013-03-29 07:17:00,35.2,27.0,30.09,East,96,0.0,-999.0,72,-99.99,,,0.00,44,weatherlink.com 1.10,2013-03-29 13:17:00,
2013-03-29 07:32:00,37.5,29.0,30.08,East,96,0.0,-999.0,70,-99.99,,,0.00,69,weatherlink.com 1.10,2013-03-29 13:32:00,
2013-03-29 07:47:00,39.7,29.0,30.09,East,96,0.0,-999.0,67,-99.99,,,0.00,130,weatherlink.com 1.10,2013-03-29 13:47:00,
2013-03-29 08:02:00,41.4,29.0,30.09,East,96,0.0,-999.0,61,-99.99,,,0.00,163,weatherlink.com 1.10,2013-03-29 14:02:00,
2013-03-29 08:17:00,42.4,30.0,30.08,East,97,0.0,-999.0,61,-99.99,,,0.00,98,weatherlink.com 1.10,2013-03-29 14:17:00,
2013-03-29 08:32:00,43.2,31.0,30.08,East,97,0.0,-999.0,62,-99.99,,,0.00,183,weatherlink.com 1.10,2013-03-29 14:32:00,
2013-03-29 08:47:00,44.5,31.0,30.07,East,97,2.0,-999.0,59,-99.99,,,0.00,163,weatherlink.com 1.10,2013-03-29 14:47:00,
2013-03-29 09:02:00,46.3,31.0,30.07,East,97,1.0,-999.0,56,-99.99,,,0.00,158,weatherlink.com 1.10,2013-03-29 15:02:00,
2013-03-29 09:17:00,47.2,32.0,30.07,East,97,1.0,-999.0,56,-99.99,,,0.00,227,weatherlink.com 1.10,2013-03-29 15:17:00,
2013-03-29 09:47:00,51.6,33.0,30.05,East,97,0.0,-999.0,49,-99.99,,,0.00,257,weatherlink.com 1.10,2013-03-29 15:47:00,
2013-03-29 10:02:00,53.1,33.0,30.05,SE,125,3.0,-999.0,47,-99.99,,,0.00,369,weatherlink.com 1.10,2013-03-29 16:02:00,
2013-03-29 10:17:00,54.3,34.0,30.04,South,173,2.0,-999.0,47,-99.99,,,0.00,408,weatherlink.com 1.10,2013-03-29 16:17:00,
2013-03-29 10:32:00,57.9,35.0,30.04,SE,132,3.0,-999.0,42,-99.99,,,0.00,408,weatherlink.com 1.10,2013-03-29 16:32:00,
2013-03-29 10:47:00,59.0,36.0,30.03,ESE,117,3.0,-999.0,42,-99.99,,,0.00,294,weatherlink.com 1.10,2013-03-29 16:47:00,
2013-03-29 11:03:00,60.8,35.0,30.03,SSE,148,4.0,-999.0,39,-99.99,,,0.00,485,weatherlink.com 1.10,2013-03-29 17:03:00,
2013-03-29 11:18:00,62.6,36.0,30.02,SSE,148,2.0,-999.0,38,-99.99,,,0.00,496,weatherlink.com 1.10,2013-03-29 17:18:00,
2013-03-29 11:32:00,64.4,37.0,30.01,ESE,116,3.0,-999.0,36,-99.99,,,0.00,545,weatherlink.com 1.10,2013-03-29 17:32:00,
2013-03-29 11:48:00,66.8,35.0,30.00,SSE,153,0.0,-999.0,31,-99.99,,,0.00,752,weatherlink.com 1.10,2013-03-29 17:48:00,
2013-03-29 12:02:00,68.5,34.0,30.00,SE,134,1.0,-999.0,28,-99.99,,,0.00,682,weatherlink.com 1.10,2013-03-29 18:02:00,
2013-03-29 12:18:00,68.4,35.0,29.99,East,98,10.0,-999.0,29,-99.99,,,0.00,568,weatherlink.com 1.10,2013-03-29 18:18:00,
2013-03-29 12:33:00,68.0,33.0,29.99,SSW,195,1.0,-999.0,27,-99.99,,,0.00,278,weatherlink.com 1.10,2013-03-29 18:33:00,
2013-03-29 12:47:00,66.4,33.0,29.99,ESE,117,3.0,-999.0,29,-99.99,,,0.00,156,weatherlink.com 1.10,2013-03-29 18:47:00,
2013-03-29 13:03:00,63.4,34.0,30.01,South,179,3.0,-999.0,33,-99.99,,,0.00,128,weatherlink.com 1.10,2013-03-29 19:03:00,
2013-03-29 13:18:00,62.2,33.0,30.00,West,274,3.0,-999.0,33,-99.99,,,0.00,70,weatherlink.com 1.10,2013-03-29 19:18:00,
2013-03-29 13:33:00,61.7,34.0,30.01,SSW,198,2.0,-999.0,35,-99.99,,,0.00,76,weatherlink.com 1.10,2013-03-29 19:33:00,
2013-03-29 13:48:00,61.3,35.0,30.02,West,281,9.0,-999.0,37,-99.99,,,0.00,105,weatherlink.com 1.10,2013-03-29 19:48:00,
2013-03-29 14:05:00,59.8,38.0,30.01,South,184,0.0,-999.0,45,-99.99,,,0.00,301,weatherlink.com 1.10,2013-03-29 20:05:00,
2013-03-29 14:17:00,60.9,36.0,29.99,ESE,119,0.0,-999.0,40,-99.99,,,0.00,281,weatherlink.com 1.10,2013-03-29 20:17:00,
2013-03-29 14:32:00,62.3,36.0,29.99,SSE,161,0.0,-999.0,37,-99.99,,,0.00,204,weatherlink.com 1.10,2013-03-29 20:32:00,
2013-03-29 14:47:00,62.9,35.0,29.98,SSE,161,0.0,-999.0,36,-99.99,,,0.00,250,weatherlink.com 1.10,2013-03-29 20:47:00,
2013-03-29 15:02:00,63.9,35.0,29.98,SE,135,0.0,-999.0,34,-99.99,,,0.00,285,weatherlink.com 1.10,2013-03-29 21:02:00,
2013-03-29 15:17:00,65.0,34.0,29.97,SE,134,0.0,-999.0,32,-99.99,,,0.00,387,weatherlink.com 1.10,2013-03-29 21:17:00,
2013-03-29 15:32:00,67.3,34.0,29.97,West,264,3.0,-999.0,29,-99.99,,,0.00,390,weatherlink.com 1.10,2013-03-29 21:32:00,
2013-03-29 15:47:00,68.8,33.0,29.97,West,273,5.0,-999.0,27,-99.99,,,0.00,564,weatherlink.com 1.10,2013-03-29 21:47:00,
2013-03-29 16:02:00,68.8,32.0,29.96,WNW,284,0.0,-999.0,26,-99.99,,,0.00,350,weatherlink.com 1.10,2013-03-29 22:02:00,
2013-03-29 16:17:00,68.3,33.0,29.96,WNW,292,0.0,-999.0,27,-99.99,,,0.00,260,weatherlink.com 1.10,2013-03-29 22:17:00,
2013-03-29 16:32:00,69.1,34.0,29.96,NW,307,0.0,-999.0,27,-99.99,,,0.00,527,weatherlink.com 1.10,2013-03-29 22:32:00,
2013-03-29 16:47:00,69.9,32.0,29.96,NE,44,2.0,-999.0,25,-99.99,,,0.00,394,weatherlink.com 1.10,2013-03-29 22:47:00,
2013-03-29 17:02:00,68.9,32.0,29.96,NE,47,0.0,-999.0,25,-99.99,,,0.00,102,weatherlink.com 1.10,2013-03-29 23:02:00,
2013-03-29 17:17:00,67.3,30.0,29.96,North,360,10.0,-999.0,25,-99.99,,,0.00,141,weatherlink.com 1.10,2013-03-29 23:17:00,
2013-03-29 17:32:00,67.0,31.0,29.96,North,360,4.0,-999.0,26,-99.99,,,0.00,88,weatherlink.com 1.10,2013-03-29 23:32:00,
2013-03-29 17:47:00,65.4,29.0,29.96,North,355,3.0,-999.0,26,-99.99,,,0.00,141,weatherlink.com 1.10,2013-03-29 23:47:00,
2013-03-29 18:02:00,65.5,31.0,29.97,North,5,10.0,-999.0,28,-99.99,,,0.00,200,weatherlink.com 1.10,2013-03-30 00:02:00,
2013-03-29 18:17:00,64.8,33.0,29.97,North,360,5.0,-999.0,30,-99.99,,,0.00,46,weatherlink.com 1.10,2013-03-30 00:17:00,
2013-03-29 18:32:00,63.4,32.0,29.98,North,9,4.0,-999.0,31,-99.99,,,0.00,37,weatherlink.com 1.10,2013-03-30 00:32:00,
2013-03-29 18:48:00,61.7,32.0,29.98,NNW,342,5.0,-999.0,33,-99.99,,,0.00,19,weatherlink.com 1.10,2013-03-30 00:48:00,
2013-03-29 19:03:00,60.0,32.0,29.99,NNW,340,3.0,-999.0,35,-99.99,,,0.00,12,weatherlink.com 1.10,2013-03-30 01:03:00,
2013-03-29 19:18:00,58.6,32.0,29.99,North,360,4.0,-999.0,37,-99.99,,,0.00,0,weatherlink.com 1.10,2013-03-30 01:18:00,
2013-03-29 19:33:00,57.4,32.0,30.00,North,350,3.0,-999.0,38,-99.99,,,0.00,0,weatherlink.com 1.10,2013-03-30 01:33:00,
2013-03-29 19:48:00,56.7,32.0,30.00,NNW,340,4.0,-999.0,39,-99.99,,,0.00,0,weatherlink.com 1.10,2013-03-30 01:48:00,
2013-03-29 20:03:00,56.7,32.0,30.01,North,355,5.0,-999.0,39,-99.99,,,0.00,0,weatherlink.com 1.10,2013-03-30 02:03:00,
2013-03-29 20:18:00,56.4,32.0,30.02,NNW,344,4.0,-999.0,39,-99.99,,,0.00,0,weatherlink.com 1.10,2013-03-30 02:18:00,
2013-03-29 20:33:00,55.5,32.0,30.03,North,360,7.0,-999.0,41,-99.99,,,0.00,0,weatherlink.com 1.10,2013-03-30 02:33:00,
2013-03-29 20:48:00,54.1,32.0,30.03,North,355,3.0,-999.0,43,-99.99,,,0.00,0,weatherlink.com 1.10,2013-03-30 02:48:00,
2013-03-29 21:03:00,53.1,32.0,30.04,North,355,2.0,-999.0,45,-99.99,,,0.00,0,weatherlink.com 1.10,2013-03-30 03:03:00,
2013-03-29 21:18:00,53.7,31.0,30.04,NNW,341,5.0,-999.0,43,-99.99,,,0.00,0,weatherlink.com 1.10,2013-03-30 03:18:00,
2013-03-29 21:33:00,54.3,32.0,30.04,NNW,340,4.0,-999.0,43,-99.99,,,0.00,0,weatherlink.com 1.10,2013-03-30 03:33:00,
2013-03-29 21:48:00,53.6,32.0,30.04,NNW,344,2.0,-999.0,44,-99.99,,,0.00,0,weatherlink.com 1.10,2013-03-30 03:48:00,
2013-03-29 22:03:00,52.7,32.0,30.04,NNW,344,2.0,-999.0,45,-99.99,,,0.00,0,weatherlink.com 1.10,2013-03-30 04:03:00,
2013-03-29 22:18:00,51.9,32.0,30.04,NNW,344,0.0,-999.0,46,-99.99,,,0.00,0,weatherlink.com 1.10,2013-03-30 04:18:00,
2013-03-29 22:33:00,51.3,31.0,30.05,NNW,344,0.0,-999.0,47,-99.99,,,0.00,0,weatherlink.com 1.10,2013-03-30 04:33:00,
2013-03-29 22:48:00,50.5,31.0,30.04,NNW,344,2.0,-999.0,48,-99.99,,,0.00,0,weatherlink.com 1.10,2013-03-30 04:48:00,
2013-03-29 23:03:00,50.0,31.0,30.05,NNW,344,0.0,-999.0,49,-99.99,,,0.00,0,weatherlink.com 1.10,2013-03-30 05:03:00,
2013-03-29 23:18:00,49.4,31.0,30.05,NNW,344,0.0,-999.0,49,-99.99,,,0.00,0,weatherlink.com 1.10,2013-03-30 05:18:00,
2013-03-29 23:33:00,49.1,30.0,30.05,NNW,344,0.0,-999.0,49,-99.99,,,0.00,0,weatherlink.com 1.10,2013-03-30 05:33:00,
2013-03-29 23:48:00,48.2,30.0,30.05,NNW,344,0.0,-999.0,50,-99.99,,,0.00,0,weatherlink.com 1.10,2013-03-30 05:48:00,